TimeEDT,TemperatureF,Dew PointF,Humidity,Sea Level PressureIn,VisibilityMPH,Wind Direction,Wind SpeedMPH,Gust SpeedMPH,PrecipitationIn,Events,Conditions,WindDirDegrees,DateUTC
12:15 AM,57.7,51.1,78,30.06,10.0,South,4.6,-,N/A,,Clear,180,2013-07-29 04:15:00
12:35 AM,56.8,50.9,80,30.06,10.0,South,4.6,-,N/A,,Clear,190,2013-07-29 04:35:00
12:55 AM,57.4,50.9,79,30.06,10.0,SSW,4.6,-,N/A,,Mostly Cloudy,200,2013-07-29 04:55:00
1:15 AM,57.4,51.1,79,30.06,10.0,South,4.6,-,N/A,,Overcast,170,2013-07-29 05:15:00
1:35 AM,57.4,51.6,81,30.06,10.0,Calm,Calm,-,N/A,,Overcast,0,2013-07-29 05:35:00
1:55 AM,58.1,51.3,78,30.06,10.0,WSW,3.5,-,N/A,,Scattered Clouds,250,2013-07-29 05:55:00
2:15 AM,59.2,50.7,74,30.06,10.0,SW,3.5,-,N/A,,Clear,230,2013-07-29 06:15:00
2:35 AM,58.3,50.4,75,30.06,10.0,South,4.6,-,N/A,,Clear,170,2013-07-29 06:35:00
2:55 AM,55.9,50.0,80,30.06,10.0,South,6.9,-,N/A,,Clear,170,2013-07-29 06:55:00
3:15 AM,56.1,49.8,79,30.06,10.0,South,4.6,-,N/A,,Clear,190,2013-07-29 07:15:00
3:55 AM,55.6,49.5,80,30.07,10.0,SSW,4.6,-,N/A,,Clear,200,2013-07-29 07:55:00
4:15 AM,55.4,49.5,80,30.07,10.0,SSW,5.8,-,N/A,,Clear,200,2013-07-29 08:15:00
4:35 AM,54.9,49.3,81,30.07,10.0,South,5.8,-,N/A,,Scattered Clouds,190,2013-07-29 08:35:00
4:55 AM,54.5,49.8,84,30.08,10.0,South,5.8,-,N/A,,Mostly Cloudy,190,2013-07-29 08:55:00
5:15 AM,55.8,50.7,83,30.08,10.0,South,6.9,-,N/A,,Overcast,190,2013-07-29 09:15:00
5:35 AM,56.7,51.1,82,30.08,10.0,SSW,6.9,-,N/A,,Overcast,200,2013-07-29 09:35:00
5:55 AM,56.7,51.1,82,30.09,10.0,SSW,6.9,-,N/A,,Overcast,200,2013-07-29 09:55:00
6:15 AM,56.8,51.3,82,30.09,10.0,SSW,5.8,-,N/A,,Overcast,210,2013-07-29 10:15:00
6:35 AM,57.2,51.3,81,30.10,10.0,SSW,4.6,-,N/A,,Overcast,210,2013-07-29 10:35:00
6:55 AM,56.8,51.4,82,30.10,10.0,SSW,5.8,-,N/A,,Overcast,210,2013-07-29 10:55:00
7:15 AM,57.0,51.6,82,30.11,10.0,SW,3.5,-,N/A,,Overcast,220,2013-07-29 11:15:00
7:35 AM,57.0,51.6,82,30.11,10.0,SW,5.8,-,N/A,,Scattered Clouds,220,2013-07-29 11:35:00
7:55 AM,58.3,52.0,80,30.11,10.0,SW,4.6,-,N/A,,Scattered Clouds,230,2013-07-29 11:55:00
8:15 AM,59.7,52.5,77,30.11,10.0,SW,3.5,-,N/A,,Scattered Clouds,220,2013-07-29 12:15:00
8:35 AM,61.2,52.7,74,30.12,10.0,SW,4.6,-,N/A,,Mostly Cloudy,230,2013-07-29 12:35:00
8:55 AM,62.1,53.2,73,30.13,10.0,SW,4.6,-,N/A,,Overcast,230,2013-07-29 12:55:00
9:15 AM,63.0,53.6,71,30.13,10.0,WSW,4.6,-,N/A,,Overcast,240,2013-07-29 13:15:00
9:35 AM,64.6,54.5,70,30.14,10.0,WSW,3.5,-,N/A,,Overcast,240,2013-07-29 13:35:00
9:55 AM,65.7,54.9,68,30.14,10.0,SSW,6.9,-,N/A,,Mostly Cloudy,210,2013-07-29 13:55:00
10:15 AM,66.7,54.7,65,30.14,10.0,SW,4.6,-,N/A,,Clear,220,2013-07-29 14:15:00
10:35 AM,68.0,55.2,64,30.14,10.0,WSW,4.6,-,N/A,,Clear,240,2013-07-29 14:35:00
10:55 AM,69.4,54.0,58,30.14,10.0,West,3.5,-,N/A,,Clear,260,2013-07-29 14:55:00
11:15 AM,70.7,53.6,55,30.14,10.0,WSW,5.8,-,N/A,,Clear,240,2013-07-29 15:15:00
11:35 AM,72.0,53.6,52,30.15,10.0,WSW,9.2,-,N/A,,Clear,250,2013-07-29 15:35:00
11:55 AM,72.7,52.9,50,30.14,10.0,NW,6.9,-,N/A,,Scattered Clouds,310,2013-07-29 15:55:00
12:15 PM,73.6,52.3,47,30.14,10.0,West,8.1,-,N/A,,Mostly Cloudy,270,2013-07-29 16:15:00
12:35 PM,73.4,51.6,46,30.15,10.0,WSW,10.4,-,N/A,,Mostly Cloudy,250,2013-07-29 16:35:00
12:55 PM,73.6,51.4,46,30.15,10.0,West,10.4,18.4,N/A,,Mostly Cloudy,260,2013-07-29 16:55:00
1:15 PM,74.3,51.3,44,30.15,10.0,West,10.4,-,N/A,,Mostly Cloudy,280,2013-07-29 17:15:00
1:35 PM,74.3,50.5,43,30.15,10.0,West,11.5,-,N/A,,Mostly Cloudy,260,2013-07-29 17:35:00
1:55 PM,74.7,49.8,42,30.15,10.0,WNW,13.8,-,N/A,,Scattered Clouds,290,2013-07-29 17:55:00
2:15 PM,75.9,50.2,40,30.15,10.0,West,13.8,17.3,N/A,,Scattered Clouds,280,2013-07-29 18:15:00
2:35 PM,76.3,50.0,40,30.14,10.0,West,12.7,16.1,N/A,,Scattered Clouds,260,2013-07-29 18:35:00
2:55 PM,75.9,50.7,41,30.14,10.0,WSW,10.4,16.1,N/A,,Mostly Cloudy,250,2013-07-29 18:55:00
3:15 PM,76.5,50.0,39,30.14,10.0,West,11.5,18.4,N/A,,Scattered Clouds,260,2013-07-29 19:15:00
3:35 PM,77.2,50.2,39,30.14,10.0,WNW,8.1,13.8,N/A,,Scattered Clouds,290,2013-07-29 19:35:00
3:55 PM,77.4,50.4,39,30.14,10.0,West,11.5,-,N/A,,Scattered Clouds,280,2013-07-29 19:55:00
4:15 PM,77.4,49.5,37,30.14,10.0,West,11.5,-,N/A,,Scattered Clouds,280,2013-07-29 20:15:00
4:35 PM,76.5,49.1,38,30.14,10.0,West,9.2,-,N/A,,Scattered Clouds,280,2013-07-29 20:35:00
4:55 PM,77.2,50.4,39,30.15,10.0,West,11.5,-,N/A,,Scattered Clouds,260,2013-07-29 20:55:00
5:15 PM,77.2,48.7,37,30.15,10.0,West,11.5,16.1,N/A,,Clear,280,2013-07-29 21:15:00
5:35 PM,77.0,49.3,38,30.14,10.0,WNW,8.1,-,N/A,,Mostly Cloudy,290,2013-07-29 21:35:00
5:55 PM,75.4,49.5,40,30.15,10.0,WNW,6.9,-,N/A,,Mostly Cloudy,290,2013-07-29 21:55:00
6:15 PM,76.3,49.1,38,30.15,10.0,WNW,9.2,-,N/A,,Scattered Clouds,300,2013-07-29 22:15:00
6:35 PM,75.0,48.9,40,30.15,10.0,WNW,8.1,-,N/A,,Mostly Cloudy,300,2013-07-29 22:35:00
6:55 PM,74.8,50.0,42,30.16,10.0,WNW,4.6,-,N/A,,Overcast,300,2013-07-29 22:55:00
7:15 PM,74.5,50.7,43,30.16,10.0,WNW,4.6,-,N/A,,Overcast,300,2013-07-29 23:15:00
7:35 PM,74.5,50.4,43,30.16,10.0,WNW,5.8,-,N/A,,Overcast,300,2013-07-29 23:35:00
7:55 PM,73.8,50.4,44,30.17,10.0,WNW,4.6,-,N/A,,Overcast,300,2013-07-29 23:55:00
8:15 PM,72.9,51.3,47,30.18,10.0,WNW,5.8,-,N/A,,Mostly Cloudy,300,2013-07-30 00:15:00
8:35 PM,72.0,52.3,50,30.18,10.0,Calm,Calm,-,N/A,,Scattered Clouds,0,2013-07-30 00:35:00
8:55 PM,71.6,52.2,50,30.18,10.0,Calm,Calm,-,N/A,,Scattered Clouds,0,2013-07-30 00:55:00
9:15 PM,71.8,51.8,49,30.18,10.0,Calm,Calm,-,N/A,,Mostly Cloudy,0,2013-07-30 01:15:00
9:35 PM,71.4,51.8,50,30.18,10.0,NNW,3.5,-,N/A,,Mostly Cloudy,330,2013-07-30 01:35:00
9:55 PM,68.9,53.4,58,30.19,10.0,Calm,Calm,-,N/A,,Scattered Clouds,0,2013-07-30 01:55:00
10:15 PM,65.3,55.2,70,30.20,10.0,Calm,Calm,-,N/A,,Clear,0,2013-07-30 02:15:00
10:35 PM,63.7,55.0,73,30.21,10.0,ESE,3.5,-,N/A,,Clear,120,2013-07-30 02:35:00
10:55 PM,64.0,55.0,73,30.20,10.0,Calm,Calm,-,N/A,,Clear,0,2013-07-30 02:55:00
11:15 PM,63.0,55.2,76,30.20,10.0,East,3.5,-,N/A,,Clear,100,2013-07-30 03:15:00
11:35 PM,62.2,55.2,78,30.20,10.0,Calm,Calm,-,N/A,,Clear,0,2013-07-30 03:35:00
11:55 PM,61.9,55.0,78,30.20,10.0,Calm,Calm,-,N/A,,Clear,0,2013-07-30 03:55:00